TimeEDT,TemperatureF,Dew PointF,Humidity,Sea Level PressureIn,VisibilityMPH,Wind Direction,Wind SpeedMPH,Gust SpeedMPH,PrecipitationIn,Events,Conditions,WindDirDegrees,DateUTC
12:53 AM,79.0,73.0,82,30.04,10.0,Calm,Calm,-,N/A,,Clear,0,2013-09-06 04:53:00
1:53 AM,78.1,73.9,87,30.03,10.0,Calm,Calm,-,N/A,,Clear,0,2013-09-06 05:53:00
2:53 AM,78.1,73.9,87,30.02,10.0,NE,3.5,-,N/A,,Clear,50,2013-09-06 06:53:00
3:53 AM,78.1,75.0,90,30.01,10.0,ENE,4.6,-,N/A,,Mostly Cloudy,60,2013-09-06 07:53:00
4:53 AM,78.1,75.0,90,30.01,10.0,ENE,4.6,-,N/A,,Clear,70,2013-09-06 08:53:00
5:53 AM,77.0,75.0,94,30.01,10.0,East,3.5,-,N/A,,Clear,80,2013-09-06 09:53:00
6:53 AM,77.0,75.0,94,30.02,10.0,ENE,4.6,-,N/A,,Clear,70,2013-09-06 10:53:00
7:53 AM,78.1,75.9,93,30.04,10.0,East,4.6,-,N/A,,Mostly Cloudy,80,2013-09-06 11:53:00
8:53 AM,81.0,77.0,88,30.04,10.0,East,4.6,-,N/A,,Clear,100,2013-09-06 12:53:00
9:53 AM,84.9,75.9,74,30.04,10.0,ESE,6.9,-,N/A,,Clear,120,2013-09-06 13:53:00
10:53 AM,87.1,73.9,65,30.05,10.0,Calm,Calm,-,N/A,,Clear,0,2013-09-06 14:53:00
11:53 AM,89.1,72.0,57,30.04,10.0,East,3.5,-,N/A,,Scattered Clouds,100,2013-09-06 15:53:00
12:53 PM,90.0,75.0,61,30.04,10.0,Variable,4.6,-,N/A,,Scattered Clouds,0,2013-09-06 16:53:00
1:53 PM,89.1,75.9,65,30.02,10.0,West,10.4,-,N/A,,Partly Cloudy,280,2013-09-06 17:53:00
2:53 PM,89.1,75.0,63,29.98,10.0,West,10.4,-,N/A,,Clear,280,2013-09-06 18:53:00
3:53 PM,90.0,75.9,63,29.95,10.0,West,12.7,-,N/A,,Clear,280,2013-09-06 19:53:00
4:37 PM,89.6,75.2,62,29.93,10.0,West,11.5,-,N/A,Thunderstorm,Partly Cloudy,280,2013-09-06 20:37:00
4:53 PM,89.1,75.9,65,29.94,10.0,West,12.7,-,N/A,,Partly Cloudy,280,2013-09-06 20:53:00
5:22 PM,89.6,75.2,62,29.94,10.0,West,15.0,-,N/A,Thunderstorm,Clear,280,2013-09-06 21:22:00
5:53 PM,90.0,75.0,61,29.94,10.0,NNW,9.2,-,N/A,,Clear,340,2013-09-06 21:53:00
6:05 PM,89.6,75.2,62,29.94,10.0,NW,12.7,-,N/A,Thunderstorm,Partly Cloudy,320,2013-09-06 22:05:00
6:44 PM,80.6,69.8,70,29.98,10.0,East,24.2,32.2,0.00,Rain-Thunderstorm,Light Thunderstorms and Rain,100,2013-09-06 22:44:00
6:51 PM,75.2,71.6,89,29.99,2.5,ENE,29.9,42.6,0.09,Rain-Thunderstorm,Light Thunderstorms and Rain,70,2013-09-06 22:51:00
6:53 PM,75.0,71.1,87,30.00,1.5,ENE,27.6,42.6,0.17,Rain-Thunderstorm,Heavy Thunderstorms and Rain,60,2013-09-06 22:53:00
7:04 PM,73.4,71.6,94,30.01,1.0,ENE,16.1,28.8,0.22,Rain-Thunderstorm,Heavy Thunderstorms and Rain,70,2013-09-06 23:04:00
7:21 PM,73.4,71.6,94,30.02,0.8,ENE,8.1,-,0.57,Rain-Thunderstorm,Heavy Thunderstorms and Rain,60,2013-09-06 23:21:00
7:28 PM,73.4,71.6,94,30.02,7.0,East,13.8,20.7,0.64,Rain-Thunderstorm,Heavy Thunderstorms and Rain,80,2013-09-06 23:28:00
7:41 PM,73.4,71.6,94,30.03,2.5,ENE,11.5,17.3,0.71,Rain-Thunderstorm,Light Thunderstorms and Rain,60,2013-09-06 23:41:00
7:49 PM,73.4,71.6,94,30.03,4.0,East,8.1,17.3,0.76,Rain-Thunderstorm,Thunderstorms and Rain,80,2013-09-06 23:49:00
7:53 PM,73.9,72.0,93,30.03,4.0,East,8.1,-,0.76,Rain-Thunderstorm,Light Rain,80,2013-09-06 23:53:00
8:01 PM,75.2,71.6,89,30.02,10.0,East,8.1,-,0.01,Rain-Thunderstorm,Light Thunderstorms and Rain,80,2013-09-07 00:01:00
8:33 PM,75.2,71.6,89,30.00,10.0,NE,10.4,-,0.01,,Mostly Cloudy,50,2013-09-07 00:33:00
8:53 PM,75.0,72.0,90,29.99,10.0,NE,9.2,-,0.01,,Mostly Cloudy,50,2013-09-07 00:53:00
9:53 PM,75.0,72.0,90,30.00,10.0,ENE,4.6,-,N/A,,Scattered Clouds,60,2013-09-07 01:53:00
10:53 PM,75.0,72.0,90,30.00,10.0,East,5.8,-,N/A,,Clear,80,2013-09-07 02:53:00
11:53 PM,75.0,72.0,90,29.97,10.0,SSE,5.8,-,N/A,,Clear,160,2013-09-07 03:53:00